When you browse on this site, cookies collect data to enhance your experience and personalize the content and advertising you see.
Visit our Privacy Policy to learn more. By continuing to use the site, you agree to this use of cookies and data.
  • In Portugal
  • List of Countries
  • For 7 days
  • Water Temperature
  • Satellite Maps
  • Weather Map
  • Weather Widgets
  • user-avatar
    Login

    Hourly Weather Gostkow

    Today, 21 February, Thursday

    Time Temperature Precipitation Wind Pressure Humidity
    00:00 +1°C° 0 mm 2 mps 721 mmHg 86%
    01:00 +1°C° 0 mm 2 mps 721 mmHg 86%
    02:00 +1°C° 0 mm 2 mps 721 mmHg 86%
    03:00 +1°C° 0 mm 2 mps 721 mmHg 87%
    04:00 +1°C° 0 mm 2 mps 721 mmHg 87%
    05:00 +1°C° 0 mm 2 mps 721 mmHg 88%
    06:00 +1°C° 0 mm 2 mps 721 mmHg 89%
    07:00 0°C° 0 mm 3 mps 721 mmHg 89%
    08:00 +1°C° 0 mm 3 mps 721 mmHg 86%
    09:00 +3°C° 0 mm 3 mps 722 mmHg 82%
    10:00 +4°C° 0 mm 4 mps 722 mmHg 79%
    11:00 +4°C° 0.2 mm 4 mps 722 mmHg 79%
    12:00 +4°C° 0.2 mm 3 mps 721 mmHg 79%
    13:00 +4°C° 0 mm 4 mps 721 mmHg 79%
    14:00 +4°C° 0.7 mm 4 mps 721 mmHg 81%
    15:00 +4°C° 0.7 mm 4 mps 721 mmHg 83%
    16:00 +3°C° 0.7 mm 4 mps 720 mmHg 84%
    17:00 +3°C° 0.1 mm 4 mps 720 mmHg 85%
    18:00 +3°C° 0.1 mm 4 mps 720 mmHg 86%
    19:00 +3°C° 0.1 mm 4 mps 720 mmHg 88%
    20:00 +3°C° 0.1 mm 4 mps 720 mmHg 89%
    21:00 +2°C° 0.1 mm 5 mps 720 mmHg 90%
    22:00 +2°C° 0.1 mm 5 mps 720 mmHg 91%
    23:00 +2°C° 0.8 mm 5 mps 720 mmHg 92%

    Tomorrow, 22 February, Friday

    Time Temperature Precipitation Wind Pressure Humidity
    00:00 +2°C° 0.8 mm 5 mps 720 mmHg 94%
    01:00 +3°C° 0.8 mm 4 mps 720 mmHg 95%
    02:00 +3°C° 0.9 mm 4 mps 720 mmHg 96%
    03:00 +3°C° 0.9 mm 4 mps 720 mmHg 96%
    04:00 +4°C° 0.9 mm 4 mps 720 mmHg 97%
    05:00 +1°C° 0.5 mm 5 mps 721 mmHg 96%
    06:00 0°C° 0.5 mm 5 mps 722 mmHg 95%
    07:00 -2°C° 0.5 mm 6 mps 723 mmHg 93%
    08:00 -3°C° 0.1 mm 6 mps 724 mmHg 90%
    09:00 -4°C° 0.1 mm 5 mps 725 mmHg 87%
    10:00 -4°C° 0.1 mm 5 mps 726 mmHg 84%
    11:00 -4°C° 0 mm 5 mps 727 mmHg 76%
    12:00 -4°C° 0 mm 5 mps 728 mmHg 69%
    13:00 -2°C° 0 mm 5 mps 728 mmHg 61%
    14:00 -2°C° 0 mm 4 mps 729 mmHg 60%
    15:00 -3°C° 0 mm 4 mps 729 mmHg 59%
    16:00 -3°C° 0 mm 4 mps 730 mmHg 57%
    17:00 -4°C° 0 mm 3 mps 730 mmHg 60%
    18:00 -5°C° 0 mm 3 mps 731 mmHg 63%
    19:00 -5°C° 0 mm 2 mps 731 mmHg 65%
    20:00 -5°C° 0 mm 2 mps 732 mmHg 65%
    21:00 -6°C° 0 mm 2 mps 732 mmHg 65%
    22:00 -6°C° 0 mm 2 mps 733 mmHg 64%
    23:00 -6°C° 0 mm 2 mps 733 mmHg 64%

    Day after tomorrow, 23 February, Saturday

    Time Temperature Precipitation Wind Pressure Humidity
    00:00 -6°C° 0 mm 2 mps 733 mmHg 63%
    01:00 -6°C° 0 mm 2 mps 733 mmHg 62%
    02:00 -6°C° 0 mm 1 mps 733 mmHg 62%
    03:00 -6°C° 0 mm 1 mps 733 mmHg 61%
    04:00 -6°C° 0 mm 1 mps 733 mmHg 61%
    05:00 -6°C° 0 mm 1 mps 733 mmHg 60%
    06:00 -6°C° 0 mm 1 mps 733 mmHg 60%
    07:00 -6°C° 0 mm 0 mps 733 mmHg 59%
    08:00 -4°C° 0 mm 1 mps 733 mmHg 51%
    09:00 -3°C° 0 mm 1 mps 734 mmHg 44%
    10:00 -3°C° 0 mm 2 mps 734 mmHg 37%
    11:00 -3°C° 0 mm 2 mps 734 mmHg 34%
    12:00 -2°C° 0 mm 2 mps 734 mmHg 32%
    13:00 -1°C° 0 mm 2 mps 734 mmHg 30%
    14:00 -1°C° 0 mm 2 mps 733 mmHg 31%
    15:00 +1°C° 0 mm 1 mps 733 mmHg 33%
    16:00 +1°C° 0 mm 1 mps 733 mmHg 35%
    17:00 0°C° 0 mm 1 mps 733 mmHg 39%
    18:00 -1°C° 0 mm 1 mps 732 mmHg 43%
    19:00 -2°C° 0 mm 1 mps 732 mmHg 47%
    20:00 -2°C° 0 mm 1 mps 732 mmHg 46%
    21:00 -2°C° 0 mm 1 mps 732 mmHg 45%
    22:00 -2°C° 0 mm 1 mps 732 mmHg 44%
    23:00 -2°C° 0 mm 1 mps 732 mmHg 42%

    24 February, Sunday

    Time Temperature Precipitation Wind Pressure Humidity
    00:00 -2°C° 0 mm 1 mps 732 mmHg 40%
    01:00 -2°C° 0 mm 1 mps 732 mmHg 38%
    02:00 -2°C° 0 mm 1 mps 732 mmHg 38%
    03:00 -1°C° 0 mm 1 mps 731 mmHg 38%
    04:00 -1°C° 0 mm 1 mps 731 mmHg 37%
    05:00 -1°C° 0 mm 1 mps 731 mmHg 37%
    06:00 -1°C° 0 mm 1 mps 731 mmHg 38%
    07:00 -1°C° 0 mm 1 mps 731 mmHg 38%
    08:00 0°C° 0 mm 1 mps 731 mmHg 37%
    09:00 +2°C° 0 mm 1 mps 732 mmHg 36%
    10:00 +4°C° 0 mm 1 mps 732 mmHg 35%
    11:00 +5°C° 0 mm 1 mps 732 mmHg 37%
    12:00 +5°C° 0 mm 2 mps 732 mmHg 39%
    13:00 +6°C° 0 mm 2 mps 732 mmHg 41%
    14:00 +6°C° 0 mm 2 mps 731 mmHg 46%
    15:00 +5°C° 0 mm 2 mps 731 mmHg 51%
    16:00 +5°C° 0 mm 2 mps 731 mmHg 56%
    17:00 +3°C° 0 mm 2 mps 731 mmHg 59%
    18:00 +2°C° 0 mm 2 mps 731 mmHg 61%
    19:00 +1°C° 0 mm 2 mps 731 mmHg 64%
    20:00 +1°C° 0 mm 2 mps 731 mmHg 64%
    21:00 +1°C° 0 mm 2 mps 731 mmHg 64%
    22:00 -1°C° 0 mm 2 mps 731 mmHg 65%
    23:00 +1°C° 0 mm 2 mps 731 mmHg 65%

    25 February, Monday

    Time Temperature Precipitation Wind Pressure Humidity
    00:00 +1°C° 0 mm 2 mps 731 mmHg 65%
    01:00 +2°C° 0 mm 1 mps 731 mmHg 66%
    02:00 +2°C° 0 mm 1 mps 731 mmHg 66%
    03:00 +2°C° 0 mm 1 mps 731 mmHg 67%
    04:00 +2°C° 0 mm 1 mps 731 mmHg 68%
    05:00 +2°C° 0 mm 1 mps 732 mmHg 69%
    06:00 +2°C° 0 mm 1 mps 732 mmHg 70%
    07:00 +2°C° 0 mm 1 mps 732 mmHg 71%
    08:00 +3°C° 0 mm 1 mps 732 mmHg 67%
    09:00 +4°C° 0 mm 2 mps 732 mmHg 64%
    10:00 +6°C° 0 mm 2 mps 733 mmHg 61%
    11:00 +7°C° 0 mm 2 mps 732 mmHg 59%
    12:00 +8°C° 0 mm 2 mps 732 mmHg 57%
    13:00 +9°C° 0 mm 2 mps 732 mmHg 55%
    14:00 +9°C° 0 mm 2 mps 732 mmHg 59%
    15:00 +8°C° 0 mm 2 mps 731 mmHg 62%
    16:00 +8°C° 0 mm 2 mps 731 mmHg 66%
    17:00 +6°C° 0 mm 2 mps 731 mmHg 69%
    18:00 +5°C° 0 mm 2 mps 731 mmHg 73%
    19:00 +4°C° 0 mm 2 mps 731 mmHg 76%
    20:00 +4°C° 0 mm 2 mps 730 mmHg 75%
    21:00 +3°C° 0 mm 2 mps 730 mmHg 74%
    22:00 +3°C° 0 mm 2 mps 730 mmHg 74%
    23:00 +3°C° 0 mm 2 mps 730 mmHg 74%

    26 February, Tuesday

    Time Temperature Precipitation Wind Pressure Humidity
    00:00 +3°C° 0 mm 2 mps 729 mmHg 75%
    01:00 +3°C° 0 mm 2 mps 729 mmHg 76%
    02:00 +3°C° 0 mm 2 mps 729 mmHg 77%
    03:00 +3°C° 0 mm 2 mps 728 mmHg 78%
    04:00 +3°C° 0 mm 2 mps 728 mmHg 79%
    05:00 +2°C° 0 mm 2 mps 728 mmHg 80%
    06:00 +2°C° 0 mm 2 mps 727 mmHg 81%
    07:00 +1°C° 0 mm 3 mps 727 mmHg 82%
    08:00 +3°C° 0 mm 3 mps 727 mmHg 77%
    09:00 +5°C° 0 mm 3 mps 727 mmHg 71%
    10:00 +7°C° 0 mm 4 mps 727 mmHg 65%
    11:00 +8°C° 0 mm 4 mps 727 mmHg 60%
    12:00 +8°C° 0 mm 5 mps 726 mmHg 54%
    13:00 +9°C° 0 mm 5 mps 726 mmHg 49%
    14:00 +9°C° 0 mm 5 mps 726 mmHg 54%
    15:00 +9°C° 0 mm 5 mps 725 mmHg 59%
    16:00 +8°C° 0 mm 5 mps 725 mmHg 65%
    17:00 +7°C° 0 mm 5 mps 725 mmHg 69%
    18:00 +6°C° 0 mm 5 mps 725 mmHg 73%
    19:00 +5°C° 0 mm 4 mps 725 mmHg 78%
    20:00 +5°C° 0 mm 4 mps 725 mmHg 79%
    21:00 +5°C° 0 mm 4 mps 725 mmHg 81%
    22:00 +5°C° 0 mm 4 mps 725 mmHg 83%
    23:00 +4°C° 0 mm 4 mps 725 mmHg 87%
    Show more